INTELSAT 23 (IS-23) (38867 NORAD) Tracking and Keplerian Element Data

This shows tracking and keplerian element data for the satellite.

Feedback or suggestion? Click here.




ElementValue
Catalog38867
NameINTELSAT 23 (IS-23)
Epoch Orbit2262
Epoch Day348.9151925
Epoch Year2018
RAAN350.8445
Inclination0.0207
Eccentricity0.0001465
Argument of Perigee273.2057
Mean Anonmoly95.9331
Mean Motion1.00270125
Decay Rate-2.73E-06
L11 38867U 12057A 18348.91519250 -.00000273 00000-0 00000+0 0 9995
L22 38867 0.0207 350.8445 0001465 273.2057 95.9331 1.00270125 22624

Live tracking and technical data element details for INTELSAT 23 (IS-23) (NORAD 38867). INTELSAT 23 (IS-23) can be tracked NOW for your location showing map with azimuth and elevation plus other details from your city location.

Track the satellite on the map from your city or location and see movement details for azimuth, elevation, latitude, longitude, range, height, and movement on the map or in text.







IsCatalogInMostPopularTable: catalog: 38867, numindb: 80
Update: records affected: 1



GetName: 38867 INTELSAT 23 (IS-23)

Hit Count: updated at: Sun, 16 Dec 2018 11:41:52 GMT